Location: La Cochardi�re
(47.7403°N, 1.2917°W)
Time: 08:34:28
(UTC+00:00)

Daily predictions for brighter satellites

Satellite Brightness Start Highest point End
(mag) Time Altitude Azimuth Time Altitude Azimuth Time Altitude Azimuth
Timation 2 Rocket 4.3 17:12:52 10° S 17:18:36 46° ESE 17:24:35 10° NE
Envisat 3.2 17:16:45 10° SE 17:21:37 49° ENE 17:26:32 10° N
Starlink T 3.0 17:19:54 10° SW 17:22:48 58° SSE 17:25:42 10° ENE
Starlink N 2.9 17:21:08 10° SW 17:24:02 60° SSE 17:26:56 10° ENE
Starlink Q 2.9 17:22:40 10° SW 17:25:34 62° SSE 17:28:30 10° ENE
Starlink P 2.9 17:24:00 10° SW 17:26:55 63° SSE 17:29:49 10° ENE
Cosmos 1048 Rocket 3.9 17:22:33 10° NNW 17:27:42 66° ENE 17:32:46 10° SSE
Starlink U 2.8 17:25:20 10° SW 17:28:15 65° SSE 17:31:07 10° ENE
Alouette 2 Rocket 4.2 17:24:44 10° N 17:29:19 73° ENE 17:36:20 10° SSE
Starlink B 2.8 17:26:41 10° SW 17:29:36 67° SSE 17:32:26 11° ENE
CZ-4 R/B 2.4 17:27:06 10° ESE 17:30:26 25° ENE 17:33:50 10° N
Cosmos 372 Rocket 3.9 17:28:18 10° SSW 17:33:25 78° ESE 17:38:36 10° NNE
Cosmos 1607 4.0 17:28:35 10° SSW 17:34:37 65° ESE 17:40:44 10° NE
Starlink D 2.7 17:32:12 10° SW 17:35:10 75° SSE 17:37:48 12° ENE
SJ 16-02 3.3 17:32:40 10° WSW 17:36:27 27° WNW 17:40:16 10° N
Starlink S 2.7 17:33:37 10° SW 17:36:35 77° SSE 17:39:11 13° ENE
Starlink C 2.7 17:35:01 10° WSW 17:37:58 79° SSE 17:40:31 13° ENE
Starlink E 2.7 17:36:27 10° WSW 17:39:25 81° SSE 17:41:54 14° ENE
CZ-4B R/B 4.1 17:38:26 10° NNW 17:40:18 15° WNW 17:42:09 10° WSW
Starlink J 2.7 17:37:52 10° WSW 17:40:51 83° SSE 17:43:17 14° ENE
Starlink V 2.7 17:39:17 10° WSW 17:42:16 85° SSE 17:44:39 15° ENE
Starlink H 2.7 17:40:44 10° WSW 17:43:43 87° SSE 17:46:03 15° ENE
Starlink F 2.7 17:42:12 10° WSW 17:45:11 89° SE 17:47:28 16° ENE
Starlink G 2.7 17:43:38 10° WSW 17:46:38 89° N 17:48:51 16° ENE
Starlink L 2.7 17:45:05 10° WSW 17:48:04 87° NNW 17:50:15 17° ENE
Meteor 2-10 Rocket 4.5 17:44:40 10° N 17:49:08 25° ENE 17:53:26 10° ESE
Starlink A 2.7 17:46:33 10° WSW 17:49:32 85° NNW 17:51:40 18° ENE
SKYMED 2 4.1 17:46:12 10° NNE 17:50:19 39° E 17:54:23 10° SSE
ERBS 4.2 17:48:51 10° SSE 17:50:58 16° SE 17:52:11 14° ESE
Starlink R 2.7 17:48:01 10° WSW 17:51:01 83° NNW 17:53:05 18° ENE
Starlink K 2.7 17:49:27 10° WSW 17:52:26 81° NNW 17:54:28 19° ENE
Starlink M 2.7 17:50:51 10° WSW 17:53:51 80° NNW 17:55:49 20° ENE
SMAP 4.1 17:51:33 10° S 17:56:04 50° W 18:00:37 10° NNW
Cosmos 1674 4.5 17:53:22 10° SW 17:56:44 32° WNW 18:00:07 10° N
USA 267 3.7 17:54:02 12° NE 18:00:01 55° NNW 18:06:21 10° W
CZ-2D R/B 4.1 17:57:04 10° SE 18:00:21 28° ENE 18:03:39 10° N
Cosmos 2298 Rocket 4.5 17:55:47 10° SW 18:01:01 63° WNW 18:06:20 10° NNE
ATLAS CENTAUR R/B 3.9 17:56:18 10° WSW 18:01:41 70° NNW 18:15:08 13° ENE
Cosmos 2184 Rocket 4.3 17:56:05 10° SSW 18:02:14 70° W 18:08:25 10° N
Cosmos 1812 Rocket 3.5 17:57:52 10° N 18:02:21 79° E 18:06:50 10° SSE
USA 116 4.4 18:02:58 22° E 18:03:18 22° E 18:05:49 10° SSE
Cosmos 494 Rocket 3.9 17:58:34 10° NNW 18:03:43 76° ENE 18:08:50 10° SSE
Cosmos 2237 Rocket 2.2 17:58:09 10° NNW 18:03:44 60° ENE 18:09:17 10° SE
Cosmos 2333 Rocket 3.1 17:58:42 10° NW 18:04:17 55° WSW 18:09:47 10° S
Ariane Rocket 4.0 18:01:18 10° ESE 18:05:17 24° ENE 18:09:16 10° N
Cosmos 1300 2.9 18:01:45 10° NNW 18:05:34 72° W 18:09:21 10° S
Cosmos 1241 Rocket 4.4 18:00:19 10° NW 18:06:33 80° NE 18:12:48 10° SE
Cosmos 2154 Rocket 4.0 18:03:56 10° S 18:10:14 88° E 18:16:32 10° N
YAOGAN 1 2.6 18:07:20 10° SSE 18:11:32 52° ENE 18:15:46 10° N
H-2A R/B 3.6 18:15:09 15° NE 18:15:09 15° NE 18:17:03 10° NNE
Meteor 1-24 Rocket 4.3 18:08:48 10° SSW 18:14:00 55° WNW 18:19:19 10° N
Cosmos 1340 Rocket 2.9 18:11:07 10° NNW 18:15:05 77° W 18:19:03 10° S
Meteor 1-21 Rocket 4.4 18:10:19 10° SSE 18:15:40 51° E 18:21:11 10° NNE
Starlink AR 3.0 18:14:53 10° W 18:17:20 45° NNW 18:17:52 37° NNE
Cosmos-2242 3.2 18:14:31 10° N 18:18:43 46° ENE 18:22:52 10° SSE
Cosmos 1242 Rocket 3.7 18:16:33 10° SSW 18:19:54 43° WNW 18:23:20 10° N
CSL-04 Rocket 3.7 18:14:30 10° SSE 18:19:54 64° ENE 18:25:24 10° N
NOSS 2-1 (C) 4.3 18:16:20 10° NW 18:21:24 61° NE 18:28:27 10° SE
Cosmos 1271 Rocket 4.3 18:17:57 10° SW 18:21:24 35° WNW 18:24:54 10° N
Cosmos 1455 2.7 18:18:04 10° N 18:21:38 35° ENE 18:25:09 10° SE
SL-14 R/B 4.3 18:18:34 10° SSW 18:22:27 48° WNW 18:26:20 10° N
Cosmos 2251 Rocket 4.3 18:18:01 10° N 18:22:39 30° NE 18:24:10 26° E
Cosmos 1626 3.1 18:19:57 10° SSW 18:23:32 49° WNW 18:27:10 10° N
SL-16 R/B 2.7 18:19:06 10° NNW 18:24:23 37° NE 18:27:14 23° ESE
NOSS 2-1 (D) 4.3 18:20:07 10° NW 18:25:14 65° NE 18:32:22 10° SE
YAOGAN 6 3.5 18:21:43 10° S 18:25:19 52° W 18:28:57 10° NNW
ATLAS 5 CENTAUR R/B 3.4 18:23:25 10° W 18:27:08 25° NNW 18:30:44 12° NNE
USA 32 3.9 18:24:27 10° S 18:29:40 80° E 18:34:55 10° N
Cosmos 2219 3.1 18:24:38 10° SSW 18:30:11 68° ESE 18:34:24 18° NE
Cosmos 1602 Rocket 4.3 18:26:13 10° SSW 18:30:32 54° WNW 18:34:50 10° N
Cosmos 2082 4.4 18:29:19 10° SSE 18:34:06 30° ESE 18:34:39 29° E
Cosmos 1939 Rocket 2.6 18:33:53 10° SSE 18:37:44 71° ENE 18:41:42 10° N
Starlink AQ 3.5 18:35:03 10° W 18:37:51 41° NNW 18:38:00 41° N
COSMO-SKYMED 1 2.9 18:34:10 10° N 18:38:30 68° WNW 18:42:48 10° SSW
Cosmos 2366 rocket 4.1 18:32:48 10° SSE 18:38:44 51° E 18:44:46 10° NNE
Starlink AS 3.5 18:37:18 10° W 18:40:05 40° NNW 18:40:08 40° NNW
CZ-4C R/B 3.6 18:33:11 10° NW 18:40:16 57° WSW 18:48:16 10° SSE
Starlink BA 3.5 18:37:31 10° W 18:40:19 40° NNW 18:40:21 40° NNW
Starlink AU 3.5 18:37:45 10° W 18:40:32 40° NNW 18:40:34 40° NNW
Starlink AT 3.6 18:37:59 10° W 18:40:46 40° NNW 18:40:47 40° NNW
Starlink BB 3.6 18:38:12 10° W 18:41:00 40° NNW 18:41:00 40° NNW
Starlink BC 3.6 18:38:25 10° W 18:41:13 40° NNW 18:41:13 40° NNW
Starlink BK 3.6 18:38:39 10° W 18:41:26 40° NNW 18:41:26 40° NNW
Starlink AY 3.6 18:38:53 10° W 18:41:38 39° NNW 18:41:38 39° NNW
Starlink AW 3.6 18:39:06 10° W 18:41:52 39° NNW 18:41:52 39° NNW
Starlink BJ 3.6 18:39:18 10° W 18:42:03 39° NNW 18:42:03 39° NNW
Cosmos 1953 Rocket 3.6 18:37:45 10° S 18:42:07 54° E 18:44:04 30° NNE
Starlink AV 3.6 18:39:31 10° W 18:42:16 39° NNW 18:42:16 39° NNW
Starlink BD 3.6 18:39:45 10° W 18:42:29 39° NNW 18:42:29 39° NNW
Starlink BE 3.6 18:39:56 10° W 18:42:39 39° NNW 18:42:39 39° NNW
Starlink BM 3.6 18:40:11 10° W 18:42:54 39° NNW 18:42:54 39° NNW
Starlink AX 3.7 18:40:25 10° W 18:43:07 39° NNW 18:43:07 39° NNW
Starlink BH 3.7 18:40:39 10° W 18:43:21 39° NNW 18:43:21 39° NNW
Starlink AZ 3.7 18:40:51 10° W 18:43:32 39° NNW 18:43:32 39° NNW
Starlink BG 3.7 18:41:05 10° W 18:43:46 38° NNW 18:43:46 38° NNW
Starlink BF 3.7 18:41:18 10° W 18:43:58 38° NNW 18:43:58 38° NNW
Starlink BL 3.7 18:41:30 10° W 18:44:10 38° NNW 18:44:10 38° NNW
BREEZE-M DEB (TANK) 3.2 18:42:15 10° SW 18:43:51 34° S 18:43:51 34° S
Starlink AH 3.7 18:41:45 10° W 18:44:23 38° NNW 18:44:23 38° NNW
Starlink AC 3.7 18:41:59 10° W 18:44:37 38° NNW 18:44:37 38° NNW
Starlink X 3.7 18:42:12 10° W 18:44:50 38° NNW 18:44:50 38° NNW
Starlink AE 3.7 18:42:23 10° W 18:45:00 38° NNW 18:45:00 38° NNW
Starlink Z 3.7 18:42:41 10° W 18:45:17 38° NNW 18:45:17 38° NNW
Cosmos 2297 Rocket 2.1 18:39:57 10° SSW 18:45:31 63° ESE 18:48:25 29° NE
Starlink AK 3.8 18:42:53 10° W 18:45:29 37° NNW 18:45:29 37° NNW
Cosmos 1980 4.1 18:40:07 10° NNW 18:45:47 66° WSW 18:51:24 10° SSE
Starlink AL 3.8 18:43:06 10° W 18:45:41 37° NNW 18:45:41 37° NNW
Starlink AD 3.8 18:43:20 10° W 18:45:54 37° NNW 18:45:54 37° NNW
Starlink Y 3.8 18:43:47 10° W 18:46:20 37° NNW 18:46:20 37° NNW
Starlink AG 3.8 18:44:04 10° W 18:46:36 37° NNW 18:46:36 37° NNW
Starlink W 3.8 18:44:16 10° W 18:46:49 37° NNW 18:46:49 37° NNW
Starlink AJ 3.8 18:44:28 10° W 18:46:59 37° NNW 18:46:59 37° NNW
Cosmos 1758 Rocket 3.5 18:43:03 10° SSW 18:47:21 81° W 18:51:32 11° N
Starlink AM 3.9 18:45:00 10° W 18:47:29 36° NNW 18:47:29 36° NNW
Starlink AP 3.9 18:45:09 10° W 18:47:39 36° NNW 18:47:39 36° NNW
Starlink AA 3.9 18:45:26 10° W 18:47:54 36° NNW 18:47:54 36° NNW
Starlink AF 3.9 18:45:36 10° W 18:48:04 36° NNW 18:48:04 36° NNW
Starlink AB 3.9 18:45:50 10° W 18:48:18 36° NNW 18:48:18 36° NNW
Starlink AN 3.9 18:46:04 10° W 18:48:31 36° NNW 18:48:31 36° NNW
Cosmos 1125 Rocket 4.4 18:45:28 10° SW 18:50:28 47° WNW 18:55:31 10° NNE
ATLAS CENTAUR R/B 2.9 18:52:40 10° NNW 18:54:50 22° N 18:54:50 22° N
Cosmos 2227 Rocket 2.1 18:52:01 10° SSW 18:57:39 71° ESE 18:59:59 36° NE
Starlink T 4.4 18:55:23 10° W 18:57:26 30° NW 18:57:26 30° NW
NOAA 11 4.5 18:53:16 10° S 18:58:44 69° WSW 19:04:14 10° NNW
Starlink N 4.4 18:56:38 10° W 18:58:38 29° NW 18:58:38 29° NW
ISS -1.6 18:58:28 10° SSW 18:59:47 19° S 18:59:47 19° S
Cosmos 1727 Rocket 3.9 18:56:14 10° N 19:02:24 64° ENE 19:08:31 10° SSE
BREEZE-M DEB (TANK) 4.3 18:43:02 10° W 19:03:05 79° N 19:05:06 44° ENE
Cosmos 1703 4.3 18:59:55 10° S 19:02:18 35° S 19:02:18 35° S
CZ-4 R/B 3.2 19:01:41 10° SSW 19:05:20 33° W 19:09:05 10° NNW
Cosmos 1825 Rocket 4.4 19:08:56 10° SSW 19:13:10 50° WNW 19:16:38 15° N
ARGOS 4.3 19:18:09 29° NNE 19:18:09 29° NNE 19:20:58 10° N
SL-8 Rocket 4.2 19:09:41 10° SSW 19:15:59 72° W 19:22:18 10° N
Cosmos 44 4.0 19:13:41 10° SSW 19:16:42 37° S 19:16:42 37° S
ADEOS Rocket 3.1 19:16:37 10° NNE 19:23:05 80° ESE 19:30:16 10° SSW
ERBS 4.4 19:23:37 10° WSW 19:25:12 25° WSW 19:25:12 25° WSW
Meteor 2-10 Rocket 4.4 19:26:19 10° NNW 19:31:30 49° W 19:36:26 10° SSW
USA 267 4.0 19:41:23 38° NNE 19:42:21 40° N 19:48:20 10° WNW
Ariane Rocket 3.6 19:40:07 17° S 19:43:53 55° W 19:48:54 10° NNW
Cosmos 2237 Rocket 4.3 19:42:57 10° NW 19:47:20 24° WSW 19:51:43 10° SSW
Meteor 1-11 4.5 19:46:05 10° SSW 19:50:58 63° SW 19:50:58 63° SW
H-2A R/B 3.7 19:55:45 24° NNW 19:55:45 24° NNW 19:57:47 10° NNW
Cosmos 2251 Rocket 4.5 20:00:05 10° NNW 20:04:44 45° W 20:04:44 45° W
SL-16 R/B 3.2 20:03:15 10° NW 20:08:33 41° WSW 20:09:13 40° SW
ATLAS 5 CENTAUR R/B 4.4 20:10:55 10° NW 20:12:17 13° NNW 20:12:17 13° NNW
ATLAS 5 CENTAUR R/B 3.8 20:19:34 10° NW 20:55:42 - SE 20:24:37 84° NNE
Cosmos 2297 Rocket 3.9 20:25:16 10° WSW 20:30:02 27° NW 20:30:17 27° NW
Cosmos 2227 Rocket 4.1 20:37:41 10° W 20:41:51 24° NW 20:41:51 24° NW
